Location: Drocourt
(49.0571°N, 1.7669°E)
Time: 19:55:52
(UTC+00:00)

Transit 4A - Pass Details

Date: 15 April 2024
Orbit: 871 x 971 km, 66.8° (Epoch: 18 May)

Event Time Altitude Azimuth Distance (km) Brightness Sun altitude
Rises 19:44:52 0° 321° (NW) 3,482 12.3 -9.8°
Reaches altitude 10° 19:48:06 10° 339° (NNW) 2,534 11.0 -10.2°
Maximum altitude 19:52:17 20° 25° (NNE) 1,929 9.6 -10.8°
Drops below altitude 10° 19:56:27 10° 71° (ENE) 2,527 9.8 -11.4°
Enters shadow 19:57:43 - 79° (E) 2,875 10.0 -11.6°
Sets 19:59:40 0° 88° (E) 3,470 - -11.9°
